This demonstration page uses our WeatherBlox Daily Observations layout. Learn more.

Left ArrowRight Arrow

39.12711, -84.51439

Hourly Observations for July 10, 2021

Temp ( °F °C ) Dew Point ( °F °C ) Humidity (%) Winds ( mph kmh ) Pressure ( in mb ) Visibility ( mi km ) Precip ( " mm )
12:53 am 00:53 Clear 62 16.7 60 15.6 93 93 N N/A 30.07 1018 10 16 N/A
1:53 am 01:53 Clear 61 16.1 59 15 93 93 NE 3 6 30.06 1018 10 16 N/A
2:53 am 02:53 Clear 61 16.1 59 15 93 93 N N/A 30.06 1018 10 16 N/A
3:53 am 03:53 Clear 61 16.1 59 15 93 93 N N/A 30.04 1017 10 16 N/A
4:03 am 04:03 Clear with Mist and Fog 58 14.4 57 13.9 97 97 N N/A 30.05 1018 1 1 N/A
4:13 am 04:13 Clear with Mist and Fog 60 15.6 59 15 96 96 N N/A 30.05 1017 2 3 N/A
4:20 am 04:20 Clear 61 16.1 59 15 93 93 N N/A 30.05 1017 10 16 N/A
4:53 am 04:53 Clear 61 16.1 60 15.6 97 97 N N/A 30.05 1018 7 11 N/A
5:53 am 05:53 Clear 61 16.1 59 15 93 93 N N/A 30.04 1017 10 16 N/A
6:53 am 06:53 Sunny 62 16.7 60 15.6 93 93 N N/A 30.04 1017 10 16 N/A
7:53 am 07:53 Mostly Sunny 63 17.2 61 16.1 93 93 NE 5 7 30.03 1017 10 16 N/A
8:53 am 08:53 Partly Cloudy 66 18.9 63 17.2 90 90 NNE 5 7 30.03 1017 10 16 N/A
9:53 am 09:53 Cloudy 68 20 63 17.2 84 84 N N/A 30.05 1018 10 16 N/A
10:49 am 10:49 Cloudy with Thunderstorms 70 21 63 17 78 78 W 14 22 30.07 1018 10 16 0.00 0.00
10:53 am 10:53 Cloudy with Thunderstorms 69 20.6 63 17.2 81 81 VRB 7 11 30.05 1018 3 5 0.09 2.29
11:08 am 11:08 Cloudy with Rain 67 19.4 64 17.8 91 91 E 7 11 30.03 1017 4 6 0.17 4.32
11:53 am 11:53 Cloudy with Light Rain 69 20.6 66 18.9 90 90 N 3 6 30.02 1017 10 16 0.25 6.35
12:53 pm 12:53 Cloudy 71 21.7 67 19.4 87 87 VRB 3 6 30.01 1016 8 13 0.00 0.00
1:53 pm 13:53 Mostly Cloudy 73 22.8 67 19.4 81 81 N N/A 30.00 1016 10 16 N/A
2:53 pm 14:53 Mostly Cloudy 73 22.8 68 20 84 84 S 7 11 29.99 1016 10 16 N/A
3:16 pm 15:16 Cloudy with Light Rain 74 23.3 69 20.6 85 85 S 9 15 29.97 1015 10 16 0.00 0.00
3:53 pm 15:53 Mostly Cloudy with Light Rain 75 23.9 70 21.1 84 84 N 3 6 29.97 1015 10 16 0.01 0.25
4:53 pm 16:53 Mostly Sunny 78 25.6 69 20.6 74 74 N 3 6 29.93 1014 10 16 0.00 0.00
5:53 pm 17:53 Sunny 78 25.6 68 20 71 71 NE 6 9 29.93 1014 10 16 N/A
6:53 pm 18:53 Mostly Cloudy 77 25 69 20.6 77 77 VRB 5 7 29.92 1013 10 16 N/A
7:53 pm 19:53 Partly Cloudy 76 24.4 69 20.6 79 79 NE 5 7 29.93 1014 10 16 N/A
8:53 pm 20:53 Mostly Sunny 75 23.9 69 20.6 82 82 N N/A 29.93 1014 10 16 N/A
9:53 pm 21:53 Partly Cloudy with Light Rain 72 22.2 70 21.1 94 94 E 3 6 29.93 1013 10 16 0.00 0.00
10:29 pm 22:29 Mostly Cloudy with Rain 72 22.2 70 21.1 94 94 N N/A 29.92 1013 2 3 0.10 2.54
10:39 pm 22:39 Mostly Cloudy with Light Rain 72 22.2 70 21.1 94 94 N 5 7 29.91 1013 3 5 0.12 3.05
10:53 pm 22:53 Partly Cloudy with Light Rain 72 22.2 70 21.1 94 94 ENE 6 9 29.90 1013 10 16 0.12 3.05
11:53 pm 23:53 Mostly Cloudy with Light Rain 71 21.7 70 21.1 96 96 N N/A 29.90 1013 9 14 0.01 0.25

Powered by AerisWeather